Weather in Ust-Yazva

Russia / Perm Krai     60°21′57″N   56°48′10″E
temp.,
°C
wind,
m/s
gust,
m/s
humid.,
%
clouds,
%
prec.,
mm/h
press.,
hPa
HPBL,
m
3 march, wed
wed323:00−9s4994100 1.5 992349
02:00−8s4995100 0.3 991306
05:00−6sw3796100 1.7 991308
08:00−5wnw2797100 0.9 991380
11:00−4wnw3693100 1.4 993570
14:00−3w3591100 0.2 993546
17:00−4w3690100 0.3 994725
20:00−6wsw2796100 0.1 994316
4 march, thu
thu423:00−9sw2496100 0.1 99486
02:00−8sw2596100 0.1 993183
05:00−9sw2696100 0.4 993200
08:00−10sw2596100 0.2 992175
11:00−9ssw249499 0.6 992280
14:00−6ssw2592100 0.3 992509
17:00−6sw2589100 0.6 992665
20:00−8ssw2397100 0.2 99297
5 march, fri
fri523:00−10s129797 0.3 99221
02:00−11se119792 0.1 99321
05:00−10wnw009796 0.5 99421
08:00−12wnw229799 0.3 99539
11:00−11wnw239498 0.4 997266
14:00−9w2390100 0.1 998571
17:00−10w3491100 0.3 999522
20:00−13w249697 0.1 1001100
6 march, sat
sat623:00−14wnw249798 0.2 100299
02:00−17wnw239895 0.1 100358
05:00−20wnw229985 0.1 100520
08:00−20w129997 0.1 100620
11:00−16wsw139399 0.1 1007307
14:00−12wsw2487100 0.1 1007740
17:00−12wsw2487100 0.2 1006647
20:00−15ssw1197100 0.1 100720
7 march, sun
sun723:00−16e0098100 0.4 100720
02:00−17nw2398100 0.3 100671
05:00−20wnw259897 0.4 1007129
08:00−26w229847 0.0 100719
11:00−20sw129341 0.0 1007242
14:00−16ssw238698 0.0 1007581
17:00−15s248999 0.1 1007655
20:00−17sse2697100 0.1 1007161